Weather History for Pensacola NAS, FL

Change the Weather History Date:

Friday, February 15, 2013

  Actual Average Record
Temperature  
Mean Temperature 48 °F -  
Max Temperature 62 °F 63 °F 77 °F (2003)
Min Temperature 35 °F 45 °F 32 °F (1999)
Degree Days  
Heating Degree Days 16    
Moisture  
Dew Point 38 °F    
Average Humidity 79    
Maximum Humidity 100    
Minimum Humidity 39    
Precipitation  
Precipitation 0.00 in - - ()
Sea Level Pressure  
Sea Level Pressure 30.10 in    
Wind  
Wind Speed 2 mph (NW)    
Max Wind Speed 12 mph    
Max Gust Speed -    
Visibility 7 miles    
Events Rain , Snow    
Averages and records for this station are not official NWS values.
T = Trace of Precipitation, MM = Missing Value Source: NWS Daily Summary

Daily Weather History Graph

Daily Weather History Graph

Search for Another Location

Airport:

Trip Planner

Search our weather history database for the weather conditions in past years. The results will help you decide how hot, cold, wet, or windy it might be!

Date:

Astronomy

Feb. 15, 2013 Rise Set
Actual Time 6:29 AM CST 5:37 PM CST
Civil Twilight 6:04 AM CST 6:02 PM CST
Nautical Twilight 5:36 AM CST 6:30 PM CST
Astronomical Twilight 5:08 AM CST 6:58 PM CST
Moon 9:32 AM CST (2/15) 11:08 PM CST (2/15)
Length of Visible Light 11h 57m
Length of Day
11h 08m
Waxing Crescent, 30% of the Moon is Illuminated
Feb 15
Waxing Crescent
Feb 17
First Quarter
Feb 25
Full
Mar 4
Last Quarter
Mar 11
New

Hourly Weather History & Observations

Time (CST) Temp. Windchill Dew Point Humidity Pressure Visibility Wind Dir Wind Speed Gust Speed Precip Events Conditions
12:56 AM 37.0 °F - 35.1 °F 93% 30.10 in 5.0 mi Calm Calm - N/A   Clear
1:23 AM 35.6 °F - 35.6 °F 100% 30.10 in 5.0 mi Calm Calm - 0.00 in Rain Light Freezing Rain
1:45 AM 35.6 °F - 33.8 °F 93% 30.10 in 2.5 mi Calm Calm - 0.00 in   Clear
1:56 AM 36.0 °F - 35.1 °F 97% 30.10 in 5.0 mi Calm Calm - 0.00 in   Clear
2:20 AM 35.6 °F - 35.6 °F 100% 30.09 in 1.8 mi Calm Calm - 0.00 in Snow Light Snow
2:29 AM 35.6 °F - 33.8 °F 93% 30.09 in 3.0 mi Calm Calm - 0.00 in Rain Light Rain
2:36 AM 35.6 °F - 33.8 °F 93% 30.09 in 4.0 mi Calm Calm - 0.00 in Rain Light Freezing Rain
2:56 AM 36.0 °F - 35.1 °F 97% 30.10 in 3.0 mi Calm Calm - 0.00 in Rain Light Freezing Rain
2:59 AM 35.6 °F - 35.6 °F 100% 30.09 in 2.5 mi Calm Calm - 0.00 in   Clear
3:06 AM 35.6 °F - 35.6 °F 100% 30.09 in 6.0 mi Calm Calm - 0.00 in   Clear
3:30 AM 35.6 °F 32.8 °F 35.6 °F 100% 30.09 in 1.8 mi NNW 3.5 mph - 0.00 in Snow Light Snow
3:56 AM 35.1 °F - 34.0 °F 96% 30.10 in 2.5 mi Calm Calm - 0.00 in Rain Light Freezing Rain
4:10 AM 35.6 °F 32.8 °F 33.8 °F 93% 30.10 in 0.8 mi NNW 3.5 mph - 0.00 in Rain Light Freezing Rain
4:17 AM 35.6 °F 32.8 °F 33.8 °F 93% 30.10 in 1.2 mi NNW 3.5 mph - 0.00 in   Clear
4:25 AM 35.6 °F 31.7 °F 33.8 °F 93% 30.10 in 3.0 mi NNW 4.6 mph - 0.00 in   Clear
4:56 AM 37.9 °F 34.4 °F 37.9 °F 100% 30.12 in 10.0 mi NNW 4.6 mph - 0.00 in   Clear
5:56 AM 37.9 °F 35.5 °F 37.0 °F 97% 30.12 in 10.0 mi North 3.5 mph - N/A   Clear
6:56 AM 39.0 °F 35.7 °F 37.0 °F 93% 30.14 in 8.0 mi NNW 4.6 mph - N/A   Clear
7:56 AM 46.4 °F 45.2 °F 42.8 °F 87% 30.16 in 10.0 mi NNW 3.5 mph - N/A   Partly Cloudy
8:56 AM 53.6 °F - 42.8 °F 67% 30.17 in 10.0 mi North 3.5 mph - N/A   Partly Cloudy
9:56 AM 57.9 °F - 37.9 °F 47% 30.17 in 10.0 mi NNE 6.9 mph - N/A   Clear
10:56 AM 61.0 °F - 37.9 °F 42% 30.16 in 10.0 mi Variable 5.8 mph - N/A   Clear
11:56 AM 62.1 °F - 37.9 °F 41% 30.12 in 10.0 mi NE 6.9 mph - N/A   Partly Cloudy
12:56 PM 62.1 °F - 37.0 °F 39% 30.09 in 10.0 mi SE 10.4 mph - N/A   Scattered Clouds
1:56 PM 61.0 °F - 37.9 °F 42% 30.07 in 10.0 mi South 8.1 mph - N/A   Scattered Clouds
2:56 PM 61.0 °F - 37.9 °F 42% 30.06 in 10.0 mi SW 9.2 mph - N/A   Scattered Clouds
3:56 PM 60.1 °F - 39.9 °F 47% 30.05 in 10.0 mi SSW 11.5 mph - N/A   Scattered Clouds
4:56 PM 57.0 °F - 41.0 °F 55% 30.05 in 10.0 mi WSW 8.1 mph - N/A   Mostly Cloudy
5:56 PM 54.0 °F - 43.0 °F 66% 30.06 in 10.0 mi WSW 4.6 mph - N/A   Mostly Cloudy
6:56 PM 53.1 °F - 43.0 °F 69% 30.07 in 10.0 mi West 5.8 mph - N/A   Mostly Cloudy
7:56 PM 52.0 °F - 43.0 °F 71% 30.08 in 10.0 mi West 4.6 mph - N/A   Scattered Clouds
8:56 PM 52.0 °F - 43.0 °F 71% 30.09 in 10.0 mi West 3.5 mph - N/A   Mostly Cloudy
9:56 PM 50.0 °F - 43.0 °F 77% 30.09 in 10.0 mi WNW 3.5 mph - N/A   Clear
10:56 PM 48.9 °F - 44.1 °F 83% 30.09 in 10.0 mi WNW 4.6 mph - N/A   Clear
11:56 PM 50.0 °F - 44.1 °F 80% 30.08 in 10.0 mi NW 5.8 mph - N/A   Clear